Location: Olomouc
(49.5830°N, 17.2500°E)
Time: 07:52:43
(UTC+02:00)

X-37B - Pass Details

Date: 02 August 2021
Orbit: 381 x 393 km, 45.0° (Epoch: 29 August)

Event Time Altitude Azimuth Distance (km) Brightness Sun altitude
Exits shadow 04:35:52 - 204° (SSW) 1,587 3.1 -7.2°
Reaches altitude 10° 04:36:33 10° 196° (SSW) 1,392 2.9 -7.1°
Maximum altitude 04:38:34 16° 155° (SSE) 1,093 2.7 -6.9°
Drops below altitude 10° 04:40:36 10° 115° (ESE) 1,397 3.8 -6.6°
Sets 04:43:11 0° 93° (E) 2,254 5.3 -6.3°
